DateTimeUTC,F1_A11,F1_S11,BsB_S11,BsG_S11,BsR_S11,BbsB_S11,BbsG_S11,BbsR_S11,BaB_A11,BaG_A11,BaR_A11,Tu_S11,T_S11,Uu_S11,U_S11,P_S11,T1_A11
2021-06-02T12:00:00Z,00000200,21000000,,,,,,,-000.01,0000.06,0000.42,16.7,23.4,00.3,00.2,0661.6,30.9
2021-06-02T12:01:00Z,00000200,21000000,,,,,,,-000.00,-000.09,-000.05,16.7,23.4,00.3,00.2,0661.6,30.9
2021-06-02T12:02:00Z,00000200,21000000,,,,,,,0000.09,0000.09,-000.16,16.7,23.4,00.3,00.2,0661.6,30.9
2021-06-02T12:03:00Z,00000200,61000000,,,,,,,0000.50,0000.49,0000.33,16.7,23.4,00.3,00.2,0661.6,30.9
2021-06-02T12:04:00Z,00000200,41000000,0000.89,0000.46,0000.02,0000.36,0000.16,0000.18,0000.03,0000.37,0000.07,17.0,23.4,00.6,00.4,0662.6,30.9
2021-06-02T12:05:00Z,00000200,01000000,0000.56,0000.58,0000.20,0000.41,0000.16,0000.17,0000.29,-000.03,0000.49,17.0,23.3,00.6,00.4,0662.6,30.9
2021-06-02T12:06:00Z,00000200,01000000,0000.80,0000.46,0000.20,0000.30,-000.15,0000.19,0000.11,0000.12,-000.24,17.1,23.3,00.6,00.4,0662.7,30.9
2021-06-02T12:07:00Z,00000200,01000000,0000.83,0000.38,0000.17,0000.56,0000.21,0000.13,0000.16,0000.36,0000.13,17.1,23.4,00.6,00.4,0662.7,30.9
2021-06-02T12:08:00Z,00000200,01000000,0000.69,0000.52,0000.21,0000.09,-000.01,0000.22,0000.38,0000.19,0000.30,17.1,23.3,00.6,00.4,0662.7,30.9
2021-06-02T12:09:00Z,00000200,01000000,0000.83,0000.55,0000.23,0000.19,0000.03,-000.00,-000.01,0000.30,0000.11,17.1,23.3,00.7,00.5,0662.7,30.9
2021-06-02T12:10:00Z,00000200,01000000,0000.38,0000.19,0000.47,0000.02,0000.19,0000.23,0000.31,-000.08,0000.06,17.1,23.4,00.7,00.5,0662.7,30.9
2021-06-02T12:11:00Z,00000200,01000000,0000.52,0000.33,0000.17,0000.29,0000.40,-000.02,-000.05,-000.01,-000.03,17.1,23.4,00.8,00.5,0662.7,30.9
2021-06-02T12:12:00Z,00000200,01000000,0000.84,0000.25,0000.06,0000.42,0000.17,-000.03,0000.25,0000.45,0000.15,17.2,23.4,00.6,00.4,0662.7,30.9
2021-06-02T12:13:00Z,00000200,01000000,0001.13,0000.56,0000.29,0000.23,0000.37,0000.29,0000.40,0000.13,0000.12,17.2,23.4,00.6,00.4,0662.7,30.9
2021-06-02T12:14:00Z,00000200,01000000,0000.66,0000.43,0000.18,0000.56,0000.10,0000.09,-000.02,-000.01,0000.15,17.2,23.4,00.6,00.4,0662.8,30.9
2021-06-02T12:15:00Z,00000200,01000000,0000.78,0000.40,0000.36,0000.50,0000.37,0000.38,0000.49,-000.02,0000.44,17.2,23.4,00.8,00.5,0662.8,30.9
2021-06-02T12:16:00Z,00000200,01000000,0001.30,0000.62,0000.09,0000.78,0000.20,0000.04,0000.03,0000.54,-000.06,17.2,23.4,00.7,00.4,0662.7,30.9
2021-06-02T12:17:00Z,00000200,01000000,0001.19,0000.44,0000.43,0000.77,0000.19,0000.07,0000.29,0000.27,0000.41,17.2,23.4,00.7,00.5,0662.7,30.9
2021-06-02T12:18:00Z,00000200,01000000,0001.32,0000.39,0000.12,0000.55,0000.11,0000.03,0000.17,0000.39,0000.21,17.2,23.4,00.7,00.5,0662.7,30.9
2021-06-02T12:19:00Z,00000200,01000000,0000.41,0000.58,-000.04,0000.13,0000.19,0000.09,0000.24,0000.02,0000.07,17.2,23.4,00.8,00.5,0662.7,30.9
2021-06-02T12:20:00Z,00000200,01000000,0000.85,0000.31,0000.29,0000.67,0000.07,0000.10,0000.49,0000.35,0000.36,17.2,23.4,00.7,00.5,0662.7,30.9
2021-06-02T12:21:00Z,00000200,01000000,0001.05,0000.71,0000.11,-000.01,0000.14,-000.13,0000.08,0000.04,-000.23,17.2,23.4,00.7,00.5,0662.7,30.9
2021-06-02T12:22:00Z,00000200,01000000,0001.24,0000.88,0000.66,0000.19,0000.03,0000.06,0000.41,0000.50,0000.55,17.3,23.5,00.7,00.5,0662.7,30.9
2021-06-02T12:23:00Z,00000200,01000000,0000.59,0000.46,0000.50,0000.28,-000.08,0000.34,0000.37,0000.13,-000.17,17.3,23.5,00.8,00.5,0662.7,30.9
2021-06-02T12:24:00Z,00000200,01000000,0001.06,0000.72,0000.29,-000.42,0000.22,0000.04,0000.22,0000.61,0000.66,17.3,23.5,00.7,00.5,0662.7,30.9
2021-06-02T12:25:00Z,00000200,01000000,0001.39,0000.06,0000.31,0000.18,0000.08,0000.14,0000.21,0000.06,0000.25,17.3,23.5,00.8,00.5,0662.8,30.9
2021-06-02T12:26:00Z,00000200,01000000,0000.58,0000.55,0000.38,-000.17,0000.12,0000.03,0000.02,0000.13,-000.42,17.4,23.6,00.8,00.6,0662.8,30.9
2021-06-02T12:27:00Z,00000200,01000000,0000.38,0000.26,0000.28,0000.14,0000.23,0000.38,0000.57,0000.43,0000.35,17.4,23.6,00.8,00.5,0662.8,31.0
2021-06-02T12:28:00Z,00000200,01000000,0000.59,0000.44,0000.03,0000.29,0000.00,-000.08,0000.15,0000.19,0000.28,17.4,23.6,00.7,00.5,0662.8,30.9
2021-06-02T12:29:00Z,00000200,01000000,0000.70,0000.52,0000.19,0000.70,0000.06,0000.14,0000.01,0000.01,0000.32,17.4,23.6,00.7,00.5,0662.8,30.9
2021-06-02T12:30:00Z,00000200,01000000,0000.65,0000.54,0000.50,0000.28,-000.12,0000.06,0000.69,0000.23,0000.11,17.4,23.6,00.8,00.6,0662.8,30.9
2021-06-02T12:31:00Z,00000200,01000000,0000.67,0000.82,0000.28,0000.40,0000.26,0000.15,-000.12,-000.06,-000.22,17.5,23.6,00.7,00.5,0662.8,31.0
2021-06-02T12:32:00Z,00000200,01000000,0001.09,0000.68,0000.23,0000.64,0000.38,-000.14,0000.24,0000.33,0000.25,17.5,23.7,00.8,00.5,0662.8,30.9
2021-06-02T12:33:00Z,00000200,01000000,0000.70,0000.60,0000.30,0000.52,0000.17,0000.06,0000.28,0000.03,0000.43,17.5,23.7,00.8,00.5,0662.8,30.9
2021-06-02T12:34:00Z,00000200,01000000,0000.75,0000.43,0000.60,0000.40,0000.33,-000.10,0000.06,0000.20,0000.00,17.5,23.7,00.7,00.4,0662.8,31.0
2021-06-02T12:35:00Z,00000200,01000000,0001.07,0000.50,0000.13,0000.67,0000.15,-000.14,0000.41,0000.37,0000.02,17.6,23.7,00.8,00.5,0662.8,31.0
2021-06-02T12:36:00Z,00000200,01000000,0000.53,0000.63,0000.40,0000.31,0000.02,0000.16,0000.09,0000.22,0000.56,17.6,23.7,00.8,00.6,0662.8,30.9
2021-06-02T12:37:00Z,00000200,01000000,0000.92,0000.93,0000.45,-000.18,0000.09,-000.00,0000.37,0000.79,-000.32,17.6,23.7,00.8,00.5,0662.8,30.9
2021-06-02T12:38:00Z,00000200,01000000,0000.65,0000.55,0000.30,0000.46,0000.23,0000.14,0000.55,-000.14,0000.38,17.7,23.8,00.8,00.5,0662.8,31.0
2021-06-02T12:39:00Z,00000200,01000000,0000.93,0000.85,0000.29,0000.20,0000.11,0000.08,0000.17,0000.25,0000.37,17.7,23.8,00.7,00.5,0662.8,30.9
2021-06-02T12:40:00Z,00000200,01000000,0001.09,0000.44,0000.46,0000.61,0000.17,0000.15,0000.14,0000.22,0000.23,17.7,23.8,00.8,00.5,0662.8,30.9
2021-06-02T12:41:00Z,00000200,01000000,0001.14,0000.46,0000.25,0000.58,0000.08,0000.20,0000.41,0000.64,0000.07,17.7,23.8,00.9,00.6,0662.8,30.9
2021-06-02T12:42:00Z,00000200,01000000,0001.46,0000.64,0000.26,0000.46,0000.21,-000.11,0000.15,-000.06,0000.39,17.8,23.8,00.9,00.6,0662.8,31.0
2021-06-02T12:43:00Z,00000200,01000000,0000.43,0000.65,0000.23,0000.38,0000.16,0000.31,0000.12,-000.14,-000.07,17.8,23.8,00.8,00.5,0662.8,31.0
2021-06-02T12:44:00Z,00000200,01000000,0000.55,0000.50,0000.06,-000.03,0000.10,0000.14,0000.23,0000.44,0000.36,17.8,23.9,00.7,00.5,0662.8,31.0
2021-06-02T12:45:00Z,00000200,01000000,0000.86,0000.63,0000.35,0000.43,0000.20,0000.17,0000.61,0000.24,-000.03,17.8,23.9,00.8,00.5,0662.8,31.0
2021-06-02T12:46:00Z,00000200,01000000,0000.67,0000.80,0000.31,0000.62,0000.04,-000.06,0000.02,0000.45,0000.19,17.9,23.9,00.8,00.5,0662.8,31.0
2021-06-02T12:47:00Z,00000200,01000000,0001.53,0000.50,0000.35,0000.04,0000.22,0000.35,0000.35,0000.23,0000.24,17.9,24.0,00.9,00.6,0662.8,31.0
2021-06-02T12:48:00Z,00000200,01000000,0001.20,0000.60,-000.03,-000.18,0000.15,-000.02,0000.12,0000.36,0000.17,17.9,24.0,00.8,00.5,0662.8,30.9
2021-06-02T12:49:00Z,00000200,01000000,0001.49,0000.51,0000.32,-000.02,0000.25,0000.05,0000.43,0000.79,0000.53,18.0,24.0,00.8,00.5,0662.8,30.9
2021-06-02T12:50:00Z,00000200,01000000,0000.70,0000.54,0000.19,0000.37,0000.24,-000.11,0000.34,-000.32,0000.17,18.0,24.0,00.8,00.5,0662.8,30.9
2021-06-02T12:51:00Z,00000200,01000000,0000.83,0000.33,0000.47,-000.02,0000.27,0000.10,-000.12,0000.03,0000.02,18.0,24.0,00.8,00.6,0662.8,30.9
2021-06-02T12:52:00Z,00000200,01000000,0000.85,0000.18,0000.48,0000.75,0000.12,0000.31,0000.22,0000.25,0000.10,18.0,24.1,00.8,00.5,0662.8,30.9
2021-06-02T12:53:00Z,00000200,01000000,0000.68,0000.24,0000.37,-000.15,0000.09,-000.09,0000.73,0000.26,0000.31,18.1,24.1,00.7,00.5,0662.8,30.9
2021-06-02T12:54:00Z,00000200,01000000,0000.55,0000.73,0000.26,0000.46,0000.21,0000.21,0000.07,0000.37,0000.37,18.1,24.1,00.8,00.5,0662.8,31.0
2021-06-02T12:55:00Z,00000200,01000000,0001.26,0000.57,0000.55,0000.69,0000.42,0000.16,0000.23,0000.19,-000.04,18.1,24.1,00.8,00.5,0662.9,31.0
2021-06-02T12:56:00Z,00000200,01000000,0000.63,0000.58,0000.35,0000.26,0000.15,0000.15,0000.11,0000.02,0000.21,18.1,24.2,00.8,00.5,0662.9,31.0
2021-06-02T12:57:00Z,00000200,41000000,,,,,,,0000.06,0000.19,0000.05,18.2,24.2,00.3,00.2,0662.9,31.0
2021-06-02T12:58:00Z,00000200,61000000,,,,,,,0000.18,0000.05,-000.28,18.0,24.3,00.6,00.4,0661.9,31.0
2021-06-02T12:59:00Z,00000200,21000000,,,,,,,-000.07,0000.31,0000.16,18.0,24.4,00.6,00.4,0661.9,31.0
